Flag for Kazakhstan Weather past 2 weeks in Qyzylorda, Kazakhstan

Now
46 °F

Clear.


Feels Like: 46 °F
Forecast: 43 / 70 °F
Wind: No wind

Location: Kzyl-Orda

Current Time: Apr 28, 2015 at 3:35:22 AM

Latest Report: Apr 28, 2015 at 3:00 AM


Visibility: 10 mi

Pressure: 30.33 "Hg

Humidity: 76%

Dew point: 39 °F

Location of QyzylordaLocation

Historic Weather in Qyzylorda — Graph

°F

Qyzylorda temperature yesterday

Maximum temperature yesterday: 64 °F (at 5:00 PM)
Minimum temperature yesterday: 52 °F (at 11:00 PM)
Average temperature yesterday: 58 °F

Past Weeks' High & Low Weather Summary

 TemperatureHumidityPressure
High91 °F (Apr 22, 3:30 PM)100% (Apr 18, 3:00 AM)30.36 "Hg (Apr 18, 3:00 AM)
Low36 °F (Apr 18, 6:30 AM)11% (Apr 22, 2:30 PM)29.62 "Hg (Apr 22, 11:00 PM)
Average61 °F52%29.93 "Hg
* Reported Apr 13 2:00 AM — Apr 28 2:00 AM, Qyzylorda, Weather by CustomWeather, © 2015

Note: Actual official high and low records may vary slightly from our data, if they occured in-between our weather recording intervals... More about our weather records

Advertising

Qyzylorda weather history for previous 24 hours

 ConditionsComfort  
Time TempWeatherWind HumidityBarometerVisibility
2:00 AM
Tue, Apr 28
48 °FClear.No wind71%30.33 "Hg10 mi
1:00 AM50 °FClear.3 mph67%30.33 "Hg10 mi
12:00 AM50 °FClear.6 mph67%30.33 "Hg10 mi
11:00 PM
Mon, Apr 27
52 °FClear.6 mph62%30.36 "Hg10 mi
10:00 PM54 °FClear.6 mph58%30.33 "Hg10 mi
9:00 PM57 °FSunny.8 mph48%30.33 "Hg10 mi
8:30 PM59 °FSunny.6 mph45%30.33 "Hg10 mi
8:00 PM61 °FSunny.8 mph36%30.33 "Hg10 mi
7:30 PM61 °FSunny.6 mph36%30.33 "Hg10 mi
7:00 PM63 °FPassing clouds.6 mph34%30.33 "HgN/A
6:30 PM63 °FSunny.6 mph32%30.33 "Hg10 mi
6:00 PM64 °FPassing clouds.6 mph30%30.30 "HgN/A
5:30 PM63 °FPassing clouds.6 mph27%30.30 "HgN/A
5:00 PM64 °FPassing clouds.3 mph30%30.30 "HgN/A
4:30 PM63 °FPassing clouds.8 mph30%30.30 "HgN/A
4:00 PM63 °FPassing clouds.8 mph30%30.30 "HgN/A
3:30 PM63 °FPassing clouds.8 mph34%30.30 "HgN/A
3:00 PM63 °FPassing clouds.8 mph34%30.30 "HgN/A
2:30 PM63 °FPassing clouds.10 mph34%30.30 "HgN/A
2:00 PM61 °FPassing clouds.8 mph39%30.30 "HgN/A
1:30 PM61 °FPassing clouds.10 mph45%30.30 "HgN/A
1:00 PM61 °FPassing clouds.10 mph36%30.30 "HgN/A
12:30 PM61 °FPassing clouds.8 mph39%30.30 "HgN/A
12:00 PM61 °FSunny.8 mph45%30.27 "Hg10 mi
11:30 AM59 °FSunny.8 mph48%30.27 "Hg10 mi
11:00 AM59 °FSunny.8 mph48%30.27 "Hg10 mi
10:30 AM59 °FSunny.8 mph51%30.24 "Hg10 mi
10:00 AM57 °FSunny.8 mph59%30.24 "Hg10 mi
9:30 AM55 °FSunny.8 mph63%30.24 "Hg10 mi
9:00 AM54 °FSunny.6 mph72%30.21 "Hg10 mi
8:30 AM54 °FSunny.10 mph77%30.21 "Hg10 mi
8:00 AM54 °FSunny.8 mph82%30.18 "Hg10 mi
7:30 AM54 °FClear.8 mph82%30.15 "Hg10 mi
7:00 AM54 °FClear.8 mph82%30.15 "Hg10 mi
6:30 AM54 °FClear.8 mph88%30.15 "Hg10 mi
6:00 AM55 °FClear.13 mph82%30.12 "Hg10 mi
5:30 AM55 °FMostly cloudy.13 mph82%30.12 "HgN/A
5:00 AM55 °FMostly cloudy.10 mph82%30.12 "HgN/A
4:00 AM57 °FMostly cloudy.10 mph72%30.09 "HgN/A
3:00 AM57 °FMostly cloudy.13 mph72%30.09 "HgN/A
Weather by CustomWeather, © 2015

See weather overviewHow to use our weather pages